IU6BJT Weather Reports


time (UTC)temp
F
wind
direction
speed
knots
gust
knots
rain 1hr
in
rain 24hr
in
rain mn
in
humidity
%
barometer
mb
20260507230024 56 159 0.9 1.7 0.00 0.05 0.00 85 1014.1
20260507225102 56 159 0.0 0.9 0.00 0.05 0.00 85 1014.2
20260507224019 57 155 1.7 1.7 0.00 0.05 0.00 84 1014.2
20260507223016 57 154 1.7 1.7 0.00 0.05 0.00 83 1014.2
20260507222033 58 146 1.7 1.7 0.00 0.05 0.00 82 1014.0
20260507221030 58 156 1.7 1.7 0.00 0.05 0.00 81 1014.0
20260507220047 59 125 0.9 0.9 0.00 0.05 0.05 79 1014.1
20260507215025 60 124 0.9 1.7 0.00 0.05 0.05 77 1014.0
20260507214022 61 105 0.9 0.9 0.00 0.05 0.05 75 1014.0
20260507213019 61 115 0.9 1.7 0.00 0.05 0.05 74 1014.1
20260507212016 61 161 0.0 0.9 0.00 0.05 0.05 75 1014.1
20260507211033 61 161 0.9 0.9 0.00 0.05 0.05 74 1014.1
20260507210031 61 163 0.9 1.7 0.00 0.05 0.05 75 1014.1
20260507205028 61 215 0.0 0.9 0.00 0.05 0.05 75 1014.0
20260507204027 61 194 0.9 1.7 0.00 0.05 0.05 76 1014.1
20260507203022 61 178 0.0 0.0 0.00 0.05 0.05 77 1014.1
20260507202020 61 178 0.0 0.0 0.00 0.05 0.05 76 1014.1
20260507201017 61 177 0.0 0.0 0.00 0.05 0.05 76 1013.9
20260507200034 62 177 0.0 0.9 0.00 0.05 0.05 74 1013.9
20260507195033 63 159 0.9 2.6 0.00 0.05 0.05 72 1014.0
20260507194028 64 159 0.9 1.7 0.00 0.05 0.05 72 1014.0
20260507193025 64 152 2.6 5.2 0.00 0.05 0.05 73 1013.9
20260507192042 64 128 0.9 5.2 0.00 0.05 0.05 72 1013.8
20260507191020 64 134 1.7 3.5 0.00 0.05 0.05 69 1013.8
20260507190017 65 120 0.9 3.5 0.00 0.05 0.05 67 1013.7
20260507185034 65 133 1.7 3.5 0.00 0.05 0.05 67 1013.8
20260507184051 66 101 1.7 3.5 0.00 0.05 0.05 66 1013.7
20260507183049 66 118 1.7 2.6 0.00 0.05 0.05 65 1013.5
20260507182026 66 137 0.9 2.6 0.00 0.05 0.05 66 1013.4
20260507181024 66 122 1.7 3.5 0.00 0.05 0.05 65 1013.4
20260507180022 67 119 1.7 2.6 0.00 0.05 0.05 65 1013.3
20260507175017 67 94 1.7 5.2 0.00 0.05 0.05 65 1013.1
20260507174035 67 117 2.6 7.8 0.00 0.05 0.05 64 1013.0
20260507173032 68 116 4.3 9.6 0.00 0.05 0.05 63 1012.9
20260507172029 68 114 3.5 7.0 0.00 0.05 0.05 64 1012.8
20260507171027 68 117 4.3 9.6 0.00 0.05 0.05 65 1012.7
20260507170024 68 101 5.2 13.0 0.00 0.05 0.05 64 1012.6
20260507165021 68 121 3.5 7.8 0.00 0.05 0.05 63 1012.7
20260507164038 69 109 5.2 11.3 0.00 0.05 0.05 61 1012.6
20260507163015 69 113 4.3 9.6 0.00 0.06 0.05 61 1012.7
20260507162033 69 111 5.2 9.6 0.00 0.07 0.05 60 1012.6
20260507161030 69 116 4.3 13.0 0.00 0.07 0.05 61 1012.7
20260507160027 69 100 5.2 13.0 0.00 0.07 0.05 62 1012.6
20260507155025 69 119 6.1 11.3 0.00 0.07 0.05 62 1012.6
20260507154022 69 95 7.0 13.9 0.00 0.07 0.05 62 1012.6
20260507153019 70 97 7.0 11.3 0.00 0.07 0.05 63 1012.6
20260507152016 69 128 4.3 11.3 0.00 0.07 0.05 64 1012.6
20260507151033 70 98 5.2 13.0 0.00 0.07 0.05 63 1012.6
20260507150030 70 106 6.1 13.9 0.00 0.07 0.05 65 1012.6
20260507145029 70 135 4.3 11.3 0.00 0.07 0.05 62 1012.6
20260507144025 69 123 5.2 12.2 0.00 0.07 0.05 64 1012.7
20260507143022 69 126 6.1 13.9 0.00 0.07 0.05 68 1012.8
20260507142019 69 88 6.1 12.2 0.00 0.07 0.05 71 1012.9
20260507141016 68 83 4.3 12.2 0.00 0.07 0.05 73 1012.7
20260507140034 68 116 5.2 12.2 0.00 0.07 0.05 71 1012.8
20260507135035 68 106 6.1 11.3 0.00 0.07 0.05 71 1012.8
20260507134028 69 116 6.1 13.0 0.00 0.07 0.05 72 1013.0
20260507133025 68 86 7.0 13.9 0.00 0.07 0.05 72 1013.0
20260507132022 67 101 5.2 9.6 0.00 0.07 0.05 75 1013.0
20260507131023 68 106 7.0 13.9 0.00 0.07 0.05 76 1013.1
20260507130016 68 105 5.2 9.6 0.00 0.07 0.05 74 1013.1
20260507125034 70 98 4.3 9.6 0.00 0.07 0.05 64 1013.0
20260507124031 69 88 4.3 9.6 0.00 0.07 0.05 64 1013.0
20260507123028 68 87 7.8 12.2 0.00 0.07 0.05 66 1012.9
20260507122025 70 83 6.1 13.0 0.00 0.07 0.05 62 1012.9
20260507121024 72 79 6.1 9.6 0.00 0.07 0.05 56 1012.8
20260507120039 75 88 3.5 8.7 0.00 0.07 0.05 53 1013.0
20260507115037 76 327 1.7 6.1 0.00 0.07 0.05 33 1013.0
20260507114034 75 298 2.6 7.8 0.00 0.07 0.05 33 1013.0
20260507113031 76 282 6.1 8.7 0.00 0.07 0.05 36 1012.9
20260507112028 76 216 3.5 7.8 0.00 0.07 0.05 42 1013.1
20260507111025 75 232 4.3 8.7 0.00 0.07 0.05 43 1013.1
20260507110042 74 270 4.3 7.8 0.00 0.07 0.05 45 1013.1
20260507105019 73 228 7.0 9.6 0.00 0.07 0.05 47 1013.3
20260507104016 73 252 5.2 11.3 0.00 0.07 0.05 46 1013.3
20260507103053 73 231 5.2 12.2 0.00 0.07 0.05 47 1013.4
20260507102031 72 249 5.2 8.7 0.00 0.07 0.05 49 1013.3
20260507101046 72 221 5.2 9.6 0.00 0.07 0.05 49 1013.3
20260507100023 72 238 6.1 13.0 0.00 0.07 0.05 48 1013.4
20260507095020 72 257 5.2 9.6 0.00 0.07 0.05 51 1013.6
20260507094022 70 255 5.2 9.6 0.00 0.07 0.05 52 1013.6
20260507093111 70 265 7.0 13.0 0.00 0.07 0.05 52 1013.7
20260507092021 70 284 4.3 8.7 0.00 0.07 0.05 56 1013.8
20260507091017 68 291 3.5 8.7 0.00 0.07 0.05 60 1013.7
20260507090034 67 302 3.5 7.8 0.00 0.07 0.05 63 1013.9
20260507085032 67 291 3.5 7.0 0.00 0.07 0.05 66 1013.8
20260507084049 67 306 4.3 7.8 0.00 0.07 0.05 67 1013.7
20260507083025 68 312 4.3 7.0 0.00 0.07 0.05 61 1013.6
20260507082024 70 300 5.2 11.3 0.00 0.07 0.05 57 1013.4
20260507081019 71 249 4.3 8.7 0.00 0.07 0.05 56 1013.4
20260507080016 70 232 1.7 2.6 0.00 0.07 0.05 59 1013.3
20260507075033 69 214 0.9 2.6 0.00 0.07 0.05 61 1013.4
20260507074042 70 256 1.7 5.2 0.00 0.07 0.05 60 1013.4
20260507073027 70 201 2.6 5.2 0.00 0.07 0.05 59 1013.4
20260507072024 69 211 2.6 3.5 0.00 0.07 0.05 62 1013.4
20260507071022 68 245 1.7 3.5 0.00 0.07 0.05 65 1013.3
20260507070019 68 214 1.7 3.5 0.00 0.07 0.05 68 1013.3
20260507065016 67 225 3.5 6.1 0.00 0.07 0.05 69 1013.2
20260507064038 66 227 0.9 1.7 0.00 0.08 0.05 79 1013.2
20260507063030 64 259 1.7 2.6 0.00 0.08 0.05 83 1013.1
20260507062027 64 289 2.6 3.5 0.00 0.08 0.05 82 1013.0
20260507061024 63 250 1.7 2.6 0.00 0.11 0.05 86 1013.1
20260507060023 62 261 0.9 1.7 0.00 0.13 0.05 88 1013.0
20260507055018 61 257 1.7 2.6 0.00 0.13 0.05 90 1013.2
20260507054036 61 275 1.7 1.7 0.00 0.13 0.05 89 1013.1
20260507053032 61 254 0.9 1.7 0.00 0.13 0.05 89 1013.0
20260507052029 60 222 0.0 0.9 0.00 0.13 0.05 90 1013.0
20260507051026 60 224 0.0 0.9 0.00 0.14 0.05 91 1012.9
20260507050104 60 230 0.9 1.7 0.00 0.14 0.05 92 1012.8
20260507045020 60 235 0.0 0.9 0.00 0.14 0.05 92 1012.7
20260507044018 60 235 0.0 0.9 0.00 0.14 0.05 92 1012.5
20260507043035 59 235 0.0 0.9 0.00 0.14 0.05 92 1012.4
20260507042032 59 0.0 0.0 0.00 0.14 0.05 91 1012.4
20260507041049 59 235 0.0 0.0 0.01 0.14 0.05 91 1012.3
20260507040028 59 173 0.9 1.7 0.02 0.14 0.05 91 1012.2
20260507035023 60 143 0.9 2.6 0.03 0.14 0.05 90 1012.0
20260507034020 60 137 1.7 3.5 0.03 0.14 0.05 90 1012.0
20260507033017 60 136 1.7 2.6 0.03 0.14 0.05 89 1012.0
20260507032034 60 149 0.0 0.9 0.04 0.14 0.05 89 1012.1
20260507031032 61 138 1.7 1.7 0.03 0.13 0.04 87 1012.1
20260507030029 61 199 1.7 1.7 0.02 0.12 0.03 83 1012.0
20260507025026 61 181 1.7 2.6 0.02 0.11 0.02 85 1012.1
20260507024023 61 183 0.9 0.9 0.02 0.11 0.02 83 1011.9
20260507023041 62 255 0.9 1.7 0.02 0.11 0.02 81 1011.7
20260507022037 63 306 0.9 1.7 0.01 0.10 0.01 77 1011.4
20260507021034 63 309 1.7 2.6 0.01 0.10 0.01 77 1011.5
20260507020051 63 266 0.9 1.7 0.01 0.10 0.01 76 1011.7
20260507015050 62 244 0.9 1.7 0.00 0.09 0.00 78 1011.7
20260507014025 63 258 0.9 1.7 0.00 0.09 0.00 75 1011.7
20260507013023 63 276 1.7 3.5 0.00 0.09 0.00 76 1011.7
20260507012020 62 281 0.9 1.7 0.00 0.09 0.00 76 1011.5
20260507011017 63 282 0.9 1.7 0.00 0.09 0.00 76 1011.6
20260507010034 62 229 1.7 1.7 0.00 0.09 0.00 76 1011.5
20260507005031 62 123 0.0 0.9 0.00 0.09 0.00 77 1011.6
20260507004028 62 123 0.9 1.7 0.00 0.09 0.00 76 1011.5
20260507003027 63 150 1.7 1.7 0.00 0.09 0.00 74 1011.5
20260507002022 64 253 0.9 1.7 0.00 0.09 0.00 70 1011.7
20260507001019 64 225 0.9 2.6 0.00 0.09 0.00 69 1011.6
20260507000017 65 174 1.7 1.7 0.00 0.09 0.00 68 1011.7
20260506235034 65 104 0.9 1.7 0.00 0.09 0.00 68 1011.8
20260506234036 65 7 1.7 2.6 0.00 0.09 0.00 67 1011.7
20260506233028 65 274 0.9 1.7 0.00 0.09 0.00 67 1011.8
20260506232025 65 193 0.9 1.7 0.00 0.09 0.00 66 1011.6
20260506231022 65 222 0.9 2.6 0.00 0.09 0.00 65 1011.7